Latest Weather Observations for Badgerys Creek

IDN60901

Issued at 6:05 pm EST Friday 25 July 2014 (issued every 10 minutes, with the page automatically refreshed every 10 minutes)

About weather observations | Map of Sydney area stations | Latest observations for Sydney area | Other Formats
Station Details ID: 067108 Name: BADGERYS CREEK AWS Lat: -33.90 Lon: 150.73 Height: 81.2 m
Data from the previous 72 hours. | See also: Recent months at Badgerys Creek
Date/Time
EST
Tmp

°C
App
Tmp
°C
Dew
Point
°C
Rel
Hum
%
Delta-T

°C
Wind Press
QNH
hPa
Press
MSL
hPa
Rain
since
9 am
mm
Dir
 
Spd
km/h
Gust
km/h
Spd
kts
Gust
kts
25/06:00pm 18.0 14.7 9.6 58 4.4 N 17 22 9 12 1020.8 1020.9 0.0
25/05:30pm 18.3 15.0 9.4 56 4.7 N 17 22 9 12 1020.3 - 0.0
25/05:00pm 19.0 13.9 9.2 53 5.2 N 26 32 14 17 1019.9 1020.0 0.0
25/04:30pm 20.4 15.0 9.6 50 5.8 N 28 39 15 21 1019.4 - 0.0
25/04:00pm 20.2 14.8 9.5 50 5.7 N 28 44 15 24 1019.1 1019.2 0.0
25/03:30pm 20.6 15.1 9.2 48 6.1 N 28 43 15 23 1019.0 - 0.0
25/03:00pm 20.8 16.5 9.4 48 6.1 N 22 32 12 17 1019.0 1019.1 0.0
25/02:30pm 20.4 16.5 9.6 50 5.8 N 20 30 11 16 1018.8 - 0.0
25/02:00pm 19.9 19.6 11.4 58 4.7 NE 4 9 2 5 1019.1 1019.2 0.0
25/01:30pm 17.6 17.1 10.9 65 3.6 ENE 4 7 2 4 1019.4 - 0.0
25/01:00pm 15.5 15.9 11.1 75 2.4 CALM 0 4 0 2 1019.7 1019.8 0.0
25/12:30pm 12.8 12.6 11.7 93 0.6 SW 4 9 2 5 1020.4 - 0.0
25/12:00pm 10.0 8.7 10.0 100 0.0 WNW 7 9 4 5 1021.1 1021.2 0.0
25/11:30am 8.4 6.9 8.4 100 0.0 WNW 6 7 3 4 1021.5 - 0.0
25/11:00am 8.0 5.8 8.0 100 0.0 WNW 9 11 5 6 1022.0 1022.1 0.0
25/10:30am 7.9 6.7 7.9 100 0.0 WNW 4 6 2 3 1022.5 - 0.0
25/10:00am 7.2 5.4 7.2 100 0.0 NNE 6 7 3 4 1022.6 1022.7 0.0
25/09:30am 6.7 5.6 6.7 100 0.0 N 2 6 1 3 1023.2 - 0.0
25/09:00am 5.8 3.7 5.8 100 0.0 NNW 6 6 3 3 1022.7 1022.8 0.0
25/08:30am 5.3 3.1 5.3 100 0.0 NW 6 9 3 5 1022.7 - 0.0
25/08:00am 5.0 3.5 5.0 100 0.0 NW 2 6 1 3 1021.7 1021.8 0.0
25/07:30am 4.0 2.7 4.0 100 0.0 CALM 0 0 0 0 1021.6 - 0.0
25/07:00am 3.3 1.5 3.3 100 0.0 NW 2 9 1 5 1021.8 1021.9 0.0
25/06:30am 4.0 2.7 4.0 100 0.0 CALM 0 0 0 0 1021.1 - 0.0
25/06:00am 3.6 2.2 3.6 100 0.0 CALM 0 0 0 0 1020.7 1020.8 0.0
25/05:30am 3.5 1.3 3.5 100 0.0 N 4 6 2 3 1020.3 - 0.0
25/05:00am 4.6 2.3 4.6 100 0.0 N 6 7 3 4 1020.1 1020.2 0.0
25/04:30am 4.4 2.4 4.4 100 0.0 N 4 6 2 3 1020.1 - 0.0
25/04:00am 3.9 1.4 3.9 100 0.0 N 6 7 3 4 1020.1 1020.2 0.0
25/03:30am 4.8 2.9 4.8 100 0.0 N 4 6 2 3 1020.0 - 0.0
25/03:00am 5.8 3.7 5.8 100 0.0 N 6 7 3 4 1020.1 1020.2 0.0
25/02:30am 5.9 3.6 5.9 100 0.0 N 7 9 4 5 1020.1 - 0.0
25/02:00am 6.1 4.4 6.1 100 0.0 N 4 6 2 3 1020.2 1020.3 0.0
25/01:30am 6.7 4.8 6.7 100 0.0 N 6 7 3 4 1020.2 - 0.0
25/01:00am 7.4 6.0 7.4 100 0.0 N 4 6 2 3 1019.9 1020.0 0.0
25/12:30am 7.7 5.8 7.7 100 0.0 N 7 7 4 4 1020.0 - 0.0
25/12:00am 8.0 6.2 8.0 100 0.0 N 7 9 4 5 1020.4 1020.5 0.0
 
Date/Time
EST
Tmp

°C
App
Tmp
°C
Dew
Point
°C
Rel
Hum
%
Delta-T

°C
Wind Press
QNH
hPa
Press
MSL
hPa
Rain
since
9 am
mm
Dir
 
Spd
km/h
Gust
km/h
Spd
kts
Gust
kts
24/11:30pm 7.4 5.5 7.4 100 0.0 N 7 9 4 5 1020.4 - 0.0
24/11:00pm 7.1 6.0 7.1 100 0.0 N 2 4 1 2 1020.6 1020.7 0.0
24/10:30pm 8.3 7.9 8.3 100 0.0 CALM 0 0 0 0 1020.8 - 0.0
24/10:00pm 7.3 5.5 7.3 100 0.0 N 6 6 3 3 1020.9 1021.0 0.0
24/09:30pm 8.8 8.5 8.8 100 0.0 CALM 0 0 0 0 1020.8 - 0.0
24/09:00pm 8.2 7.0 8.1 99 0.0 N 4 6 2 3 1020.8 1020.9 0.0
24/08:30pm 9.5 8.1 9.0 97 0.2 N 6 7 3 4 1020.5 - 0.0
24/08:00pm 9.2 8.6 9.1 99 0.0 N 2 4 1 2 1020.5 1020.6 0.0
24/07:30pm 9.9 9.0 9.1 95 0.4 N 4 4 2 2 1020.2 - 0.0
24/07:00pm 10.6 10.1 9.5 93 0.6 N 2 4 1 2 1019.9 1020.0 0.0
24/06:30pm 11.9 10.6 9.1 83 1.4 N 6 7 3 4 1019.8 - 0.0
24/06:00pm 13.2 13.1 9.6 79 1.8 N 0 0 0 0 1019.5 1019.6 0.0
24/05:30pm 13.8 13.7 9.3 74 2.3 CALM 0 0 0 0 1019.4 - 0.0
24/05:00pm 14.7 14.2 9.5 71 2.7 N 2 2 1 1 1019.2 1019.3 0.0
24/04:30pm 14.4 14.0 9.6 73 2.5 N 2 4 1 2 1019.1 - 0.0
24/04:00pm 14.7 13.4 9.3 70 2.8 NNE 6 7 3 4 1019.0 1019.1 0.0
24/03:30pm 15.1 13.3 9.5 69 2.9 N 9 11 5 6 1019.0 - 0.0
24/03:00pm 15.3 13.8 9.2 67 3.1 N 7 13 4 7 1018.9 1019.0 0.0
24/02:30pm 15.3 14.1 9.4 68 3.1 NNE 6 13 3 7 1019.0 - 0.0
24/02:00pm 15.0 13.7 9.8 71 2.7 N 7 11 4 6 1019.2 1019.3 0.0
24/01:30pm 14.8 13.7 10.0 73 2.5 NNE 6 11 3 6 1019.7 - 0.0
24/01:00pm 13.9 12.1 9.5 75 2.3 NNE 9 13 5 7 1020.1 1020.2 0.0
24/12:30pm 13.8 12.4 9.6 76 2.2 NNE 7 11 4 6 1020.5 - 0.0
24/12:00pm 12.9 11.5 9.4 79 1.8 N 7 9 4 5 1021.4 1021.5 0.0
24/11:30am 13.3 12.8 9.4 77 2.0 N 2 4 1 2 1021.5 - 0.0
24/11:00am 13.3 12.9 9.7 79 1.8 NNW 2 4 1 2 1022.3 1022.4 0.0
24/10:30am 11.2 10.6 10.3 94 0.5 N 4 6 2 3 1022.6 - 0.0
24/10:00am 10.4 9.7 10.2 99 0.1 E 4 6 2 3 1022.8 1022.9 0.0
24/09:30am 10.0 9.3 10.0 100 0.0 E 4 6 2 3 1022.9 - 0.0
24/09:00am 9.2 9.0 9.2 100 0.0 CALM 0 2 0 1 1022.8 1022.9 0.0
24/08:30am 8.2 7.4 8.2 100 0.0 E 2 4 1 2 1022.3 - 0.0
24/08:00am 7.5 6.9 7.5 100 0.0 CALM 0 2 0 1 1022.0 1022.1 0.0
24/07:30am 5.5 3.7 5.5 100 0.0 E 4 4 2 2 1022.1 - 0.0
24/07:00am 5.1 2.9 5.1 100 0.0 E 6 6 3 3 1021.8 1021.9 0.0
24/06:30am 5.2 3.0 5.2 100 0.0 E 6 6 3 3 1021.7 - 0.0
24/06:00am 5.3 3.5 5.3 100 0.0 E 4 6 2 3 1021.4 1021.5 0.0
24/05:30am 4.7 2.2 4.7 100 0.0 E 7 7 4 4 1021.2 - 0.0
24/05:00am 3.8 1.3 3.8 100 0.0 E 6 7 3 4 1021.0 1021.1 0.0
24/04:30am 4.3 2.3 4.3 100 0.0 E 4 6 2 3 1020.9 - 0.0
24/04:00am 5.3 3.1 5.3 100 0.0 E 6 6 3 3 1020.9 1021.0 0.0
24/03:30am 4.8 2.5 4.8 100 0.0 E 6 7 3 4 1021.1 - 0.0
24/03:00am 5.6 3.8 5.6 100 0.0 E 4 6 2 3 1021.1 1021.2 0.0
24/02:30am 5.5 3.3 5.5 100 0.0 E 6 7 3 4 1021.3 - 0.0
24/02:00am 5.5 3.3 5.5 100 0.0 E 6 7 3 4 1021.4 1021.5 0.0
24/01:30am 6.4 4.4 6.4 100 0.0 E 6 7 3 4 1021.7 - 0.0
24/01:00am 6.7 4.8 6.7 100 0.0 E 6 6 3 3 1022.1 1022.2 0.0
24/12:30am 6.5 4.6 6.5 100 0.0 E 6 7 3 4 1022.3 - 0.0
24/12:00am 6.1 4.1 6.1 100 0.0 E 6 6 3 3 1022.5 1022.6 0.0
 
Date/Time
EST
Tmp

°C
App
Tmp
°C
Dew
Point
°C
Rel
Hum
%
Delta-T

°C
Wind Press
QNH
hPa
Press
MSL
hPa
Rain
since
9 am
mm
Dir
 
Spd
km/h
Gust
km/h
Spd
kts
Gust
kts
23/11:30pm 6.4 4.8 6.4 100 0.0 E 4 6 2 3 1022.5 - 0.0
23/11:00pm 6.3 4.3 6.3 100 0.0 E 6 6 3 3 1022.7 1022.8 0.0
23/10:30pm 6.8 4.9 6.8 100 0.0 E 6 6 3 3 1022.8 - 0.0
23/10:00pm 7.1 5.3 7.0 99 0.0 E 6 6 3 3 1023.2 1023.3 0.0
23/09:30pm 7.7 6.0 7.6 99 0.0 E 6 7 3 4 1023.2 - 0.0
23/09:00pm 8.7 7.2 8.4 98 0.1 E 6 6 3 3 1023.2 1023.3 0.0
23/08:30pm 8.8 7.5 7.7 93 0.5 E 4 4 2 2 1023.0 - 0.0
23/08:00pm 9.9 8.8 8.5 91 0.7 E 4 6 2 3 1022.9 1023.0 0.0
23/07:30pm 10.5 10.1 8.3 86 1.1 CALM 0 4 0 2 1022.6 - 0.0
23/07:00pm 11.4 10.2 7.9 79 1.7 E 4 4 2 2 1022.4 1022.5 0.0
23/06:30pm 12.3 10.8 8.4 77 1.9 E 6 7 3 4 1022.2 - 0.0
23/06:00pm 12.8 11.2 7.9 72 2.4 E 6 7 3 4 1022.0 1022.1 0.0
23/05:30pm 13.4 11.5 6.7 64 3.2 E 6 7 3 4 1021.8 - 0.0
23/05:00pm 14.6 12.9 5.7 55 4.2 NE 4 4 2 2 1021.5 1021.6 0.0
23/04:30pm 15.3 13.6 5.8 53 4.6 NE 4 4 2 2 1021.4 - 0.0
23/04:00pm 15.4 13.2 5.3 51 4.8 NNE 6 7 3 4 1021.2 1021.3 0.0
23/03:30pm 16.6 14.3 5.9 49 5.2 NNE 7 11 4 6 1021.2 - 0.0
23/03:00pm 17.5 15.0 6.7 49 5.4 ENE 9 15 5 8 1021.2 1021.3 0.0
23/02:30pm 17.2 14.2 6.1 48 5.4 NE 11 15 6 8 1021.2 - 0.0
23/02:00pm 17.4 15.0 7.2 51 5.1 N 9 15 5 8 1021.5 1021.6 0.0
23/01:30pm 17.1 14.9 7.7 54 4.8 NE 9 15 5 8 1021.9 - 0.0
23/01:00pm 16.4 13.8 7.9 57 4.3 N 11 20 6 11 1022.4 1022.5 0.0
23/12:30pm 16.7 14.9 8.1 57 4.4 N 7 17 4 9 1022.9 - 0.0
23/12:00pm 16.9 16.3 9.1 60 4.0 NNE 2 7 1 4 1023.6 1023.7 0.0
23/11:30am 16.1 15.2 9.1 63 3.6 NE 4 7 2 4 1024.3 - 0.0
23/11:00am 15.7 14.9 9.6 67 3.2 E 4 11 2 6 1024.9 1025.0 0.0
23/10:30am 14.6 14.5 9.4 71 2.7 CALM 0 2 0 1 1025.3 - 0.0
23/10:00am 12.8 12.2 10.5 86 1.2 N 4 6 2 3 1025.6 1025.7 0.0
23/09:30am 11.0 10.6 11.0 100 0.0 N 4 6 2 3 1025.7 - 0.0
23/09:00am 9.2 8.3 9.2 100 0.0 N 4 4 2 2 1025.4 1025.5 0.0
23/08:30am 7.0 5.5 7.0 100 0.0 NNE 4 6 2 3 1025.4 - 0.0
23/08:00am 4.6 3.0 4.6 100 0.0 NE 2 6 1 3 1025.0 1025.1 0.0
23/07:30am 3.5 2.1 3.5 100 0.0 CALM 0 0 0 0 1024.9 - 0.0
23/07:00am 3.4 1.2 3.4 100 0.0 NE 4 6 2 3 1024.6 1024.7 0.0
23/06:30am 3.6 1.4 3.6 100 0.0 NE 4 4 2 2 1024.2 - 0.0
23/06:00am 4.4 2.4 4.4 100 0.0 NNE 4 6 2 3 1023.9 1024.0 0.0
23/05:30am 4.5 2.5 4.5 100 0.0 NNE 4 6 2 3 1023.6 - 0.0
23/05:00am 5.4 4.0 5.4 100 0.0 NNE 2 4 1 2 1023.5 1023.6 0.0
23/04:30am 5.5 3.3 5.5 100 0.0 SE 6 9 3 5 1023.3 - 0.0
23/04:00am 5.8 3.5 5.8 100 0.0 SE 7 7 4 4 1023.2 1023.3 0.0
23/03:30am 7.0 5.2 7.0 100 0.0 SE 6 7 3 4 1023.2 - 0.0
23/03:00am 7.0 5.9 7.0 100 0.0 SE 2 4 1 2 1023.5 1023.6 0.0
23/02:30am 7.3 5.5 7.3 100 0.0 SE 6 6 3 3 1023.8 - 0.0
23/02:00am 7.5 5.8 7.5 100 0.0 SE 6 7 3 4 1023.9 1024.0 0.0
23/01:30am 7.4 5.5 7.4 100 0.0 SE 7 9 4 5 1023.9 - 0.0
23/01:00am 7.9 6.3 7.9 100 0.0 SE 6 7 3 4 1024.0 1024.1 0.0
23/12:30am 7.4 5.7 7.4 100 0.0 SE 6 7 3 4 1023.9 - 0.0
23/12:00am 8.1 6.9 8.0 99 0.0 SE 4 6 2 3 1024.1 1024.2 0.0
 
Date/Time
EST
Tmp

°C
App
Tmp
°C
Dew
Point
°C
Rel
Hum
%
Delta-T

°C
Wind Press
QNH
hPa
Press
MSL
hPa
Rain
since
9 am
mm
Dir
 
Spd
km/h
Gust
km/h
Spd
kts
Gust
kts
22/11:30pm 9.0 8.0 8.9 99 0.0 SE 4 4 2 2 1024.2 - 0.0
22/11:00pm 9.4 8.5 9.1 98 0.1 SE 4 6 2 3 1024.4 1024.5 0.0
22/10:30pm 9.8 8.5 9.3 97 0.2 SE 6 6 3 3 1024.3 - 0.0
22/10:00pm 9.1 7.7 9.0 99 0.0 SE 6 7 3 4 1024.2 1024.3 0.0
22/09:30pm 9.3 8.2 8.5 95 0.4 SE 4 6 2 3 1024.2 - 0.0
22/09:00pm 9.8 8.6 8.2 90 0.8 SE 4 4 2 2 1024.2 1024.3 0.0
22/08:30pm 11.1 10.2 9.4 89 0.9 SE 4 6 2 3 1024.2 - 0.0
22/08:00pm 9.7 8.2 8.3 91 0.7 SE 6 9 3 5 1024.4 1024.5 0.0
22/07:30pm 10.3 8.9 8.7 90 0.8 SE 6 7 3 4 1024.3 - 0.0
22/07:00pm 10.7 9.1 8.8 88 0.9 SE 7 9 4 5 1023.9 1024.0 0.0
22/06:30pm 12.6 11.4 9.6 82 1.5 ESE 6 6 3 3 1023.5 - 0.0

Latest Capital City Observations: Canberra | Sydney | Melbourne | Brisbane | Adelaide | Perth | Hobart | Darwin

Other Formats:

Comma delimited format used in spreadsheet applications
http://www.bom.gov.au/fwo/IDN60901/IDN60901.94752.axf

JavaScript Object Notation format (JSON) in row-major order
http://www.bom.gov.au/fwo/IDN60901/IDN60901.94752.json